User: anonymous   Login
Location: Unspecified
(0.0000°N, 0.0000°E)
Time: 04:35:15
(UTC+00:00)
Language:

STARLINK-6227 - Orbit

View from above orbital plane
View from above orbital plane
View from above satellite
View from above satellite

Ground track
Ground track

The orbit is defined by the following mean orbital elements,

1 57060U          26145.42748209 +.00000000 +00000-0 +51950-5 0 00000
2 57060  43.0080  37.6892 0001699 266.4933  93.5724 15.27579780    09
Epoch (UTC): 25 May 2026 10:15:34
Eccentricity: 0.0001699
inclination: 43.0080°
perigee height: 482 km
apogee height: 484 km
right ascension of ascending node: 37.6892°
argument of perigee: 266.4933°
revolutions per day: 15.27579780
mean anomaly at epoch: 93.5724°

The dashed part of the orbit path shows where the satellite is in the earth's shadow,  

DLR